Time,TemperatureF,DewpointF,PressureIn,WindDirection,WindDirectionDegrees,WindSpeedMPH,WindSpeedGustMPH,Humidity,HourlyPrecipIn,Conditions,Clouds,dailyrainin,SoftwareType,DateUTC
2013-10-10 00:05:00,63.2,59.3,30.00,West,269,0.0,0.0,87,0.00,,,0.00,WeatherTracker,2013-10-10 05:05:00,
2013-10-10 00:10:00,63.1,59.2,30.00,West,269,0.0,0.0,87,0.00,,,0.00,WeatherTracker,2013-10-10 05:10:00,
2013-10-10 00:20:00,62.7,59.1,30.00,West,269,0.0,0.0,88,0.00,,,0.00,WeatherTracker,2013-10-10 05:20:00,
2013-10-10 00:30:00,62.6,59.3,30.00,West,269,0.0,0.0,89,0.00,,,0.00,WeatherTracker,2013-10-10 05:30:00,
2013-10-10 00:40:00,62.4,59.1,30.00,West,269,0.0,0.0,89,0.00,,,0.00,WeatherTracker,2013-10-10 05:40:00,
2013-10-10 00:45:00,62.3,59.3,30.00,West,269,0.0,0.0,90,0.00,,,0.00,WeatherTracker,2013-10-10 05:45:00,
2013-10-10 00:50:00,62.3,59.3,30.00,West,269,0.0,0.0,90,0.00,,,0.00,WeatherTracker,2013-10-10 05:50:00,
2013-10-10 01:00:00,62.0,59.0,30.00,West,269,0.0,0.0,90,0.00,,,0.00,WeatherTracker,2013-10-10 06:00:00,
2013-10-10 01:05:00,62.0,59.0,30.00,West,269,0.0,0.0,90,0.00,,,0.00,WeatherTracker,2013-10-10 06:05:00,
2013-10-10 01:15:00,61.8,58.8,30.00,West,269,0.0,0.0,90,0.00,,,0.00,WeatherTracker,2013-10-10 06:15:00,
2013-10-10 01:25:00,61.6,58.9,30.00,West,269,0.0,0.0,91,0.00,,,0.00,WeatherTracker,2013-10-10 06:25:00,
2013-10-10 01:30:00,61.5,58.8,30.00,West,269,0.0,0.0,91,0.00,,,0.00,WeatherTracker,2013-10-10 06:30:00,
2013-10-10 01:40:00,61.8,59.4,30.00,West,269,0.0,0.0,92,0.00,,,0.00,WeatherTracker,2013-10-10 06:40:00,
2013-10-10 01:45:00,61.8,59.4,30.01,West,269,0.0,0.0,92,0.00,,,0.00,WeatherTracker,2013-10-10 06:45:00,
2013-10-10 01:50:00,61.6,59.3,30.01,West,269,0.0,0.0,92,0.00,,,0.00,WeatherTracker,2013-10-10 06:50:00,
2013-10-10 02:00:00,61.6,59.3,30.01,West,269,0.0,0.0,92,0.00,,,0.00,WeatherTracker,2013-10-10 07:00:00,
2013-10-10 02:05:00,61.5,59.2,30.01,West,269,0.0,0.0,92,0.00,,,0.00,WeatherTracker,2013-10-10 07:05:00,
2013-10-10 02:15:00,61.5,59.5,30.01,West,269,0.0,0.0,93,0.00,,,0.00,WeatherTracker,2013-10-10 07:15:00,
2013-10-10 02:25:00,61.5,59.5,30.01,West,269,0.0,0.0,93,0.00,,,0.00,WeatherTracker,2013-10-10 07:25:00,
2013-10-10 02:30:00,61.5,59.5,30.01,West,269,0.0,0.0,93,0.00,,,0.00,WeatherTracker,2013-10-10 07:30:00,
2013-10-10 02:40:00,61.3,59.3,30.01,West,269,0.0,0.0,93,0.00,,,0.00,WeatherTracker,2013-10-10 07:40:00,
2013-10-10 02:45:00,61.3,59.3,30.01,West,269,0.0,0.0,93,0.00,,,0.00,WeatherTracker,2013-10-10 07:45:00,
2013-10-10 02:55:00,61.2,59.2,30.01,West,269,0.0,0.0,93,0.00,,,0.00,WeatherTracker,2013-10-10 07:55:00,
2013-10-10 03:00:00,61.0,59.0,30.01,West,269,0.0,0.0,93,0.00,,,0.00,WeatherTracker,2013-10-10 08:00:00,
2013-10-10 03:05:00,61.0,59.0,30.01,West,269,0.0,0.0,93,0.00,,,0.00,WeatherTracker,2013-10-10 08:05:00,
2013-10-10 03:15:00,61.0,59.3,30.01,West,269,0.0,0.0,94,0.00,,,0.00,WeatherTracker,2013-10-10 08:15:00,
2013-10-10 03:20:00,60.9,59.2,30.01,West,269,0.0,0.0,94,0.00,,,0.00,WeatherTracker,2013-10-10 08:20:00,
2013-10-10 03:30:00,60.9,59.2,30.00,West,269,0.0,0.0,94,0.00,,,0.00,WeatherTracker,2013-10-10 08:30:00,
2013-10-10 03:35:00,60.9,59.2,30.00,West,269,0.0,0.0,94,0.00,,,0.00,WeatherTracker,2013-10-10 08:35:00,
2013-10-10 03:45:00,60.9,59.2,30.00,West,269,0.0,0.0,94,0.00,,,0.00,WeatherTracker,2013-10-10 08:45:00,
2013-10-10 03:50:00,60.7,59.0,30.00,West,269,0.0,0.0,94,0.00,,,0.00,WeatherTracker,2013-10-10 08:50:00,
2013-10-10 03:55:00,60.7,59.0,30.00,West,269,0.0,0.0,94,0.00,,,0.00,WeatherTracker,2013-10-10 08:55:00,
2013-10-10 04:05:00,60.7,59.0,30.01,West,269,0.0,0.0,94,0.00,,,0.00,WeatherTracker,2013-10-10 09:05:00,
2013-10-10 04:10:00,60.7,59.0,30.01,West,269,0.0,0.0,94,0.00,,,0.00,WeatherTracker,2013-10-10 09:10:00,
2013-10-10 04:15:00,60.7,59.0,30.01,West,269,0.0,0.0,94,0.00,,,0.00,WeatherTracker,2013-10-10 09:15:00,
2013-10-10 04:25:00,60.5,59.1,30.01,West,269,0.0,0.0,95,0.00,,,0.00,WeatherTracker,2013-10-10 09:25:00,
2013-10-10 04:30:00,60.5,59.1,30.00,West,269,0.0,0.0,95,0.00,,,0.00,WeatherTracker,2013-10-10 09:30:00,
2013-10-10 04:40:00,60.5,59.1,30.00,West,269,0.0,0.0,95,0.00,,,0.00,WeatherTracker,2013-10-10 09:40:00,
2013-10-10 04:45:00,60.5,59.1,30.00,West,269,0.0,0.0,95,0.00,,,0.00,WeatherTracker,2013-10-10 09:45:00,
2013-10-10 04:50:00,60.5,59.1,30.00,West,269,0.0,0.0,95,0.00,,,0.00,WeatherTracker,2013-10-10 09:50:00,
2013-10-10 04:55:00,60.5,59.1,30.00,West,269,0.0,0.0,95,0.00,,,0.00,WeatherTracker,2013-10-10 09:55:00,
2013-10-10 05:05:00,60.5,59.1,30.00,West,269,0.0,0.0,95,0.00,,,0.00,WeatherTracker,2013-10-10 10:05:00,
2013-10-10 05:10:00,60.4,59.0,30.00,West,269,0.0,0.0,95,0.00,,,0.00,WeatherTracker,2013-10-10 10:10:00,
2013-10-10 05:20:00,60.4,59.0,30.00,West,269,0.0,0.0,95,0.00,,,0.00,WeatherTracker,2013-10-10 10:20:00,
2013-10-10 05:30:00,60.2,58.8,30.01,West,269,0.0,0.0,95,0.00,,,0.00,WeatherTracker,2013-10-10 10:30:00,
2013-10-10 05:35:00,60.2,58.8,30.01,West,269,0.0,0.0,95,0.00,,,0.00,WeatherTracker,2013-10-10 10:35:00,
2013-10-10 05:40:00,60.2,58.8,30.01,West,269,0.0,0.0,95,0.00,,,0.00,WeatherTracker,2013-10-10 10:40:00,
2013-10-10 05:50:00,60.4,59.0,30.01,West,269,0.0,0.0,95,0.00,,,0.00,WeatherTracker,2013-10-10 10:50:00,
2013-10-10 06:00:00,60.2,58.8,30.01,West,269,0.0,0.0,95,0.00,,,0.00,WeatherTracker,2013-10-10 11:00:00,
2013-10-10 06:05:00,60.4,59.0,30.01,West,269,0.0,0.0,95,0.00,,,0.00,WeatherTracker,2013-10-10 11:05:00,
2013-10-10 06:10:00,60.4,59.0,30.01,West,269,0.0,0.0,95,0.00,,,0.00,WeatherTracker,2013-10-10 11:10:00,
2013-10-10 06:20:00,60.4,59.0,30.01,West,269,0.0,0.0,95,0.00,,,0.00,WeatherTracker,2013-10-10 11:20:00,
2013-10-10 06:25:00,60.4,59.0,30.01,West,269,0.0,0.0,95,0.00,,,0.00,WeatherTracker,2013-10-10 11:25:00,
2013-10-10 06:30:00,60.4,59.0,30.01,West,269,0.0,0.0,95,0.00,,,0.00,WeatherTracker,2013-10-10 11:30:00,
2013-10-10 06:35:00,60.4,59.0,30.01,West,269,0.0,0.0,95,0.00,,,0.00,WeatherTracker,2013-10-10 11:35:00,
2013-10-10 06:45:00,60.2,58.8,30.01,West,269,0.0,0.0,95,0.00,,,0.00,WeatherTracker,2013-10-10 11:45:00,
2013-10-10 06:50:00,60.2,58.8,30.01,West,269,0.0,0.0,95,0.00,,,0.00,WeatherTracker,2013-10-10 11:50:00,
2013-10-10 07:00:00,60.1,58.7,30.00,West,269,0.0,0.0,95,0.00,,,0.00,WeatherTracker,2013-10-10 12:00:00,
2013-10-10 07:10:00,60.1,59.0,30.00,West,269,0.0,0.0,96,0.00,,,0.00,WeatherTracker,2013-10-10 12:10:00,
2013-10-10 07:15:00,60.1,59.0,30.00,West,269,0.0,0.0,96,0.00,,,0.00,WeatherTracker,2013-10-10 12:15:00,
2013-10-10 07:25:00,60.1,59.0,30.00,West,269,0.0,0.0,96,0.00,,,0.00,WeatherTracker,2013-10-10 12:25:00,
2013-10-10 07:35:00,60.2,59.1,30.01,West,269,0.0,0.0,96,0.00,,,0.00,WeatherTracker,2013-10-10 12:35:00,
2013-10-10 07:45:00,60.4,59.3,30.01,West,269,0.0,0.0,96,0.00,,,0.00,WeatherTracker,2013-10-10 12:45:00,
2013-10-10 07:50:00,60.7,59.6,30.01,West,269,0.0,0.0,96,0.00,,,0.00,WeatherTracker,2013-10-10 12:50:00,
2013-10-10 07:55:00,61.0,59.8,30.01,West,269,0.0,0.0,96,0.00,,,0.00,WeatherTracker,2013-10-10 12:55:00,
2013-10-10 08:05:00,61.5,60.3,30.02,West,269,0.0,0.0,96,0.00,,,0.00,WeatherTracker,2013-10-10 13:05:00,
2013-10-10 08:10:00,61.8,60.6,30.02,West,269,0.0,0.0,96,0.00,,,0.00,WeatherTracker,2013-10-10 13:10:00,
2013-10-10 08:20:00,62.9,61.7,30.02,West,269,0.0,0.0,96,0.00,,,0.00,WeatherTracker,2013-10-10 13:20:00,
2013-10-10 08:30:00,63.4,62.2,30.02,West,269,0.0,0.0,96,0.00,,,0.00,WeatherTracker,2013-10-10 13:30:00,
2013-10-10 08:35:00,63.9,62.7,30.02,West,269,0.0,0.0,96,0.00,,,0.00,WeatherTracker,2013-10-10 13:35:00,
2013-10-10 08:45:00,64.5,63.0,30.03,West,269,0.0,1.0,95,0.00,,,0.00,WeatherTracker,2013-10-10 13:45:00,
2013-10-10 08:50:00,65.0,63.5,30.03,West,269,0.0,0.0,95,0.00,,,0.00,WeatherTracker,2013-10-10 13:50:00,
2013-10-10 09:01:00,65.6,63.5,30.04,West,269,0.0,1.0,93,0.00,,,0.00,WeatherTracker,2013-10-10 14:01:00,
2013-10-10 18:47:00,77.7,63.2,29.93,SSE,149,0.0,0.0,61,0.00,,,0.00,WeatherTracker,2013-10-10 23:47:00,
2013-10-10 18:55:00,77.4,63.3,29.93,SSE,149,0.0,1.0,62,0.00,,,0.00,WeatherTracker,2013-10-10 23:55:00,
2013-10-10 19:00:00,77.0,63.4,29.93,SSE,149,0.0,1.0,63,0.00,,,0.00,WeatherTracker,2013-10-11 00:00:00,
2013-10-10 19:10:00,76.5,63.8,29.93,SSE,149,0.0,1.0,65,0.00,,,0.00,WeatherTracker,2013-10-11 00:10:00,
2013-10-10 19:20:00,75.8,64.5,29.93,SSE,149,0.0,0.0,68,0.00,,,0.00,WeatherTracker,2013-10-11 00:20:00,
2013-10-10 19:25:00,75.4,64.5,29.93,SSE,149,0.0,0.0,69,0.00,,,0.00,WeatherTracker,2013-10-11 00:25:00,
2013-10-10 19:30:00,75.1,65.0,29.93,SSE,149,0.0,0.0,71,0.00,,,0.00,WeatherTracker,2013-10-11 00:30:00,
2013-10-10 19:40:00,74.6,65.4,29.93,SSE,159,0.0,1.0,73,0.00,,,0.00,WeatherTracker,2013-10-11 00:40:00,
2013-10-10 19:50:00,74.0,65.6,29.93,SSE,159,0.0,0.0,75,0.00,,,0.00,WeatherTracker,2013-10-11 00:50:00,
2013-10-10 19:55:00,73.9,65.5,29.93,SSE,159,0.0,0.0,75,0.00,,,0.00,WeatherTracker,2013-10-11 00:55:00,
2013-10-10 20:05:00,73.5,65.8,29.93,SSE,159,0.0,0.0,77,0.00,,,0.00,WeatherTracker,2013-10-11 01:05:00,
2013-10-10 20:10:00,73.5,65.8,29.93,SSE,159,0.0,0.0,77,0.00,,,0.00,WeatherTracker,2013-10-11 01:10:00,
2013-10-10 20:15:00,73.3,65.6,29.94,SSE,159,0.0,0.0,77,0.00,,,0.00,WeatherTracker,2013-10-11 01:15:00,
2013-10-10 20:20:00,73.2,65.9,29.94,SSE,159,0.0,0.0,78,0.00,,,0.00,WeatherTracker,2013-10-11 01:20:00,
2013-10-10 20:25:00,73.0,65.7,29.94,SSE,159,0.0,0.0,78,0.00,,,0.00,WeatherTracker,2013-10-11 01:25:00,
2013-10-10 20:30:00,72.7,65.8,29.95,SSE,159,0.0,0.0,79,0.00,,,0.00,WeatherTracker,2013-10-11 01:30:00,
2013-10-10 20:40:00,72.5,66.0,29.95,SSE,159,0.0,0.0,80,0.00,,,0.00,WeatherTracker,2013-10-11 01:40:00,
2013-10-10 20:50:00,72.1,65.9,29.95,SSE,159,0.0,0.0,81,0.00,,,0.00,WeatherTracker,2013-10-11 01:50:00,
2013-10-10 21:00:00,72.0,66.2,29.95,SSE,159,0.0,0.0,82,0.00,,,0.00,WeatherTracker,2013-10-11 02:00:00,
2013-10-10 21:05:00,71.8,66.0,29.95,SSE,159,0.0,0.0,82,0.00,,,0.00,WeatherTracker,2013-10-11 02:05:00,
2013-10-10 21:10:00,71.6,65.8,29.95,SSE,159,0.0,0.0,82,0.00,,,0.00,WeatherTracker,2013-10-11 02:10:00,
2013-10-10 21:15:00,71.5,65.7,29.95,SSE,159,0.0,0.0,82,0.00,,,0.00,WeatherTracker,2013-10-11 02:15:00,
2013-10-10 21:20:00,71.5,65.7,29.95,SSE,159,0.0,0.0,82,0.00,,,0.00,WeatherTracker,2013-10-11 02:20:00,
2013-10-10 21:30:00,71.1,65.7,29.95,SSE,159,0.0,0.0,83,0.00,,,0.00,WeatherTracker,2013-10-11 02:30:00,
2013-10-10 21:35:00,71.1,65.7,29.95,SSE,159,0.0,0.0,83,0.00,,,0.00,WeatherTracker,2013-10-11 02:35:00,
2013-10-10 21:40:00,70.9,65.8,29.95,SSE,159,0.0,0.0,84,0.00,,,0.00,WeatherTracker,2013-10-11 02:40:00,
2013-10-10 21:50:00,70.6,65.5,29.95,SSE,159,0.0,0.0,84,0.00,,,0.00,WeatherTracker,2013-10-11 02:50:00,
2013-10-10 21:55:00,70.4,65.3,29.95,SSE,159,0.0,0.0,84,0.00,,,0.00,WeatherTracker,2013-10-11 02:55:00,
2013-10-10 22:05:00,70.3,65.2,29.95,SSE,159,0.0,0.0,84,0.00,,,0.00,WeatherTracker,2013-10-11 03:05:00,
2013-10-10 22:15:00,70.1,65.4,29.96,SSE,159,0.0,0.0,85,0.00,,,0.00,WeatherTracker,2013-10-11 03:15:00,
2013-10-10 22:20:00,70.1,65.4,29.96,SSE,159,0.0,0.0,85,0.00,,,0.00,WeatherTracker,2013-10-11 03:20:00,
2013-10-10 22:25:00,69.9,65.2,29.96,SSE,159,0.0,0.0,85,0.00,,,0.00,WeatherTracker,2013-10-11 03:25:00,
2013-10-10 22:30:00,69.8,65.4,29.96,SSE,159,0.0,0.0,86,0.00,,,0.00,WeatherTracker,2013-10-11 03:30:00,
2013-10-10 22:35:00,69.8,65.4,29.96,SSE,159,0.0,0.0,86,0.00,,,0.00,WeatherTracker,2013-10-11 03:35:00,
2013-10-10 22:45:00,69.6,65.6,29.95,SSE,159,0.0,0.0,87,0.00,,,0.00,WeatherTracker,2013-10-11 03:45:00,
2013-10-10 22:55:00,69.3,65.3,29.95,SSE,159,0.0,0.0,87,0.00,,,0.00,WeatherTracker,2013-10-11 03:55:00,
2013-10-10 23:00:00,69.1,65.1,29.95,SSE,159,0.0,0.0,87,0.00,,,0.00,WeatherTracker,2013-10-11 04:00:00,
2013-10-10 23:05:00,69.1,65.1,29.95,SSE,159,0.0,0.0,87,0.00,,,0.00,WeatherTracker,2013-10-11 04:05:00,
2013-10-10 23:10:00,68.9,64.9,29.95,SSE,159,0.0,0.0,87,0.00,,,0.00,WeatherTracker,2013-10-11 04:10:00,
2013-10-10 23:20:00,68.8,65.1,29.95,SSE,159,0.0,0.0,88,0.00,,,0.00,WeatherTracker,2013-10-11 04:20:00,
2013-10-10 23:25:00,68.6,64.9,29.95,SSE,159,0.0,0.0,88,0.00,,,0.00,WeatherTracker,2013-10-11 04:25:00,
2013-10-10 23:35:00,68.3,64.6,29.95,SSE,159,0.0,0.0,88,0.00,,,0.00,WeatherTracker,2013-10-11 04:35:00,
2013-10-10 23:40:00,68.1,64.7,29.95,SSE,159,0.0,0.0,89,0.00,,,0.00,WeatherTracker,2013-10-11 04:40:00,
2013-10-10 23:45:00,67.9,64.5,29.94,SSE,159,0.0,0.0,89,0.00,,,0.00,WeatherTracker,2013-10-11 04:45:00,
2013-10-10 23:50:00,67.8,64.8,29.94,SSE,159,0.0,0.0,90,0.00,,,0.00,WeatherTracker,2013-10-11 04:50:00,